Location: Unspecified
(0.0000°N, 0.0000°E)
Time: 03:43:46
(UTC+00:00)

LightSail 2 - Pass Details

Date: 15 November 2019
Orbit: 701 x 726 km, 24.0° (Epoch: 11 November)

Event Time Altitude Azimuth Distance (km) Brightness Sun altitude
Rises 19:00:25 0° 216° (SW) 3,077 9.4 -17.9°
Reaches altitude 10° 19:04:08 10° 189° (S) 2,156 8.0 -18.8°
Maximum altitude 19:06:34 13° 160° (SSE) 1,932 7.4 -19.4°
Enters shadow 19:08:30 11° 136° (SE) 2,073 7.3 -19.8°
